This is the latest recevied weather packets stored in our database for station/object EA3HRE-13. If no packets are shown the sender has not sent any weather packets the latest 10 day(s).
| Time | Temp. | Humidity | Pressure | Rain* | Wind** | Luminosity | Snow |
|---|---|---|---|---|---|---|---|
| 1777973256 | 18.89° C | 100% | 1012.2 hPa | 0 mm | - | - | - |
| 1777972656 | 19.44° C | 100% | 1012.2 hPa | 0 mm | - | - | - |
| 1777972056 | 18.89° C | 100% | 1012.3 hPa | 0 mm | - | - | - |
| 1777971456 | 18.33° C | 100% | 1012.2 hPa | 0 mm | - | - | - |
| 1777970856 | 17.78° C | 100% | 1012 hPa | 0 mm | - | - | - |
| 1777970256 | 16.67° C | 100% | 1012.3 hPa | 0 mm | - | - | - |
| 1777969656 | 16.11° C | 100% | 1012.1 hPa | 0 mm | - | - | - |
| 1777969055 | 16.11° C | 100% | 1012.1 hPa | 0 mm | - | - | - |
| 1777968455 | 15.56° C | 100% | 1012.2 hPa | 0 mm | - | - | - |
| 1777967825 | 15° C | 100% | 1012.3 hPa | 0 mm | - | - | - |
| 1777967225 | 15° C | 100% | 1012.3 hPa | 0 mm | - | - | - |
| 1777966625 | 14.44° C | 100% | 1012.3 hPa | 0 mm | - | - | - |
| 1777966025 | 14.44° C | 100% | 1012.4 hPa | 0 mm | - | - | - |
| 1777965425 | 13.89° C | 100% | 1011.7 hPa | 0 mm | - | - | - |
| 1777964825 | 13.89° C | 100% | 1012.4 hPa | 0 mm | - | - | - |
| 1777964225 | 13.89° C | 100% | 1012.5 hPa | 0 mm | - | - | - |
| 1777963595 | 13.33° C | 100% | 1012.5 hPa | 0 mm | - | - | - |
| 1777962995 | 13.33° C | 100% | 1012.5 hPa | 0 mm | - | - | - |
| 1777962394 | 13.33° C | 100% | 1012.7 hPa | 0 mm | - | - | - |
| 1777961764 | 13.33° C | 100% | 1012.6 hPa | 0 mm | - | - | - |
| 1777961144 | 12.78° C | 100% | 1012.4 hPa | 0 mm | - | - | - |
| 1777960544 | 12.22° C | 100% | 1012.4 hPa | 0 mm | - | - | - |
| 1777959914 | 12.22° C | 100% | 1012.4 hPa | 0 mm | - | - | - |
| 1777959314 | 11.67° C | 100% | 1012.4 hPa | 0 mm | - | - | - |
| 1777958714 | 11.11° C | 100% | 1012.5 hPa | 0 mm | - | - | - |
* Rain latest hour (hover to see other rain measurements)
** Current wind speed in m/s (hover to see current wind gust speed)